User: anonymous   Login
Location: Newark
(7.0858°N, 171.3717°E)
Time: 04:35:45
(UTC+00:00)
Language:

ITUPSAT 1 - Orbit

View from above orbital plane
View from above orbital plane
View from above satellite
View from above satellite

Ground track
Ground track

The orbit data is extracted from the following two-line orbital elements,

1 35935U 09051E   19290.71375736  .00000084  00000-0  30512-4 0  9997
2 35935  98.6117 102.3554 0008504 158.3442 201.8115 14.55558904534245
Epoch (UTC): 17 October 2019 17:07:48
Eccentricity: 0.0008504
inclination: 98.6117°
perigee height: 701 km
apogee height: 713 km
right ascension of ascending node: 102.3554°
argument of perigee: 158.3442°
revolutions per day: 14.55558904
mean anomaly at epoch: 201.8115°
orbit number at epoch: 53424

The dashed part of the orbit path shows where the satellite is in the earth's shadow,  

DLR